Other Public Products
Issued by NWS Grand Forks, ND

Home | Current Version | Previous Version | Text Only | Print | Product List | Glossary Off
Versions: 1 2 3 4 5 6 7 8 9 10 11 12 13 14 15 16 17 18 19 20 21 22 23 24 25 26 27 28 29 30 31 32 33 34 35 36 37 38 39 40 41 42 43 44 45 46 47 48 49 50

000
FPUS83 KFGF 300831
OPUFGF
PRAIRIE TO PINES WEATHER ROUNDUP
NATIONAL WEATHER SERVICE EASTERN NORTH DAKOTA/GRAND FORKS ND
200 AM CST FRI JAN 30 2015

 **SATELLITE DATA USED TO AUGMENT SKY COVER AT AUTOMATED STATIONS**
 *****  WEATHER ACROSS EASTERN NORTH DAKOTA  *****

CITY           SKY/WX    TMP DP  RH WIND       PRES   REMARKS
GRAND FORKS    CLOUDY     6  -1  73 SE8       30.52F WCI  -7
GRAND FORKS AF CLOUDY     7   1  76 S8        30.51F WCI  -6
GRAND CITY NWS   N/A      5 N/A N/A SE9         N/A  WCI  -9
BUXTON           N/A      6   1  80 SE6         N/A  WCI  -4
DEVILS LAKE    CLOUDY    12   9  85 S9        30.38F WCI   0
FARGO          PTCLDY     9   1  70 SE5       30.53F WCI   1
WAHPETON ARPT  MOSUNNY   10   3  72 SE3       30.53F
$$

 *****  WEATHER ACROSS CENTRAL AND WESTERN NORTH DAKOTA  *****

CITY           SKY/WX    TMP DP  RH WIND       PRES   REMARKS
JAMESTOWN      CLOUDY    18  13  80 S16       30.40F WCI   3
BISMARCK       CLEAR     19  17  92 SE9       30.36F WCI   8
MINOT          CLOUDY    18  14  84 SE7       30.28F WCI   9
MINOT AFB      CLOUDY    16  16  99 SE10      30.27F WCI   4
GARRISON         N/A     17  14  88 SE6       30.29F WCI   9
WILLISTON      PTCLDY    26  19  74 CALM      30.20F
DICKINSON      CLEAR     25  17  72 S12       30.21F WCI  14
HETTINGER      CLEAR     24  16  71 SE6       30.28F WCI  17
$$

 *****  OTHER OBSERVATIONS NORTHEAST NORTH DAKOTA  *****

CITY           SKY/WX    TMP DP  RH WIND       PRES   REMARKS
WALHALLA         N/A      7   5  92 SE10      30.47S WCI  -8
LANGDON        NOT AVBL
CAVALIER       FAIR       7   1  78 S10       30.48F WCI  -8
GRAFTON        NOT AVBL
CANDO          CLOUDY    14  10  85 S13       30.38F WCI   0
FORT TOTTEN    NOT AVBL
ROLLA          CLOUDY    10  10 100 S13       30.33F WCI  -5
RUGBY          FAIR      14  12  92 SE12      30.34F WCI   0
 ***** THE ABOVE OBSERVATIONS ARE NON NWS ARE NOT QUALITY
        CONTROLLED AND MAY MIS-REPORT RAIN FOR SNOW...
$$

 *****  OTHER OBSERVATIONS SOUTHEAST NORTH DAKOTA *****

CITY           SKY/WX    TMP DP  RH WIND       PRES   REMARKS
COOPERSTOWN    NOT AVBL
VALLEY CITY    CLOUDY    10  10 100 S9        30.43F WCI  -2
OAKES            N/A     18  16  93 SE10      30.47S WCI   6
GWINNER        CLOUDY    18  14  86 SE9       30.49F WCI   6
BUFFALO        NOT AVBL
WYNDMERE         N/A     10   5  79 SE7         N/A  WCI   0
 ***** THE ABOVE OBSERVATIONS ARE NON NWS ARE NOT QUALITY
       CONTROLLED AND MAY MIS-REPORT RAIN FOR SNOW...
$$

  *****  WEATHER ACROSS NORTHERN MINNESOTA  *****

CITY           SKY/WX    TMP DP  RH WIND       PRES   REMARKS
FLAG ISLAND    MOCLDY    -4  -8  84 CALM      30.48S
WARROAD        MOCLDY    -2  -8  78 CALM      30.49S
ROSEAU         MOCLDY     0  -6  78 CALM      30.50S
HALLOCK        CLOUDY     3   0  85 SE8       30.49F WCI -10
THF RVR FALLS  MOCLDY     1   0  92 SE5       30.50S WCI  -8
HALSTAD          N/A      7   0  73 S7          N/A  WCI  -5
FOSSTON        MOCLDY     0  -4  85 CALM      30.49F
BAUDETTE       MOCLDY    -4  -8  83 CALM      30.47F
WASKISH        MOCLDY    -4  -8  84 CALM      30.48F
CROOKSTON      CLEAR      5   0  78 S5        30.54F WCI  -4
$$
  *****  WEATHER ACROSS CENTRAL AND WEST MINNESOTA  *****

CITY           SKY/WX    TMP DP  RH WIND       PRES   REMARKS
BEMIDJI        MOCLDY    -1  -4  86 CALM      30.48F
PARK RAPIDS    MOCLDY     3  -2  79 CALM      30.48F
WADENA         PTCLDY     1  -2  85 CALM      30.49F
DETROIT LAKES  PTCLDY     5   1  85 SE6       30.49F WCI  -6
MOORHEAD       PTCLDY     9   3  78 SE5       30.53F WCI   0
FERGUS FALLS   PTCLDY     7   0  72 CALM      30.56F
ELBOW LAKE     FAIR       7   2  82 CALM      30.52S
MORRIS MN      CLEAR      9   3  78 CALM      30.53S
STAPLES        MOCLDY     3   1  92 CALM      30.50F
WHEATON        CLEAR      7   3  85 E3        30.55F
$$
  *****  WEATHER ELSEWHERE ACROSS MINNESOTA  *****

CITY           SKY/WX    TMP DP  RH WIND       PRES   REMARKS
DULUTH         PTCLDY     1  -4  79 W7        30.46R WCI -12
INTRNTL FALLS  MOCLDY   -15 -18  86 CALM      30.48F
ELY            CLOUDY     3  -2  78 NW3       30.45R
CLOQUET        PTCLDY     0  -6  78 W3        30.49S
BRAINERD       PTCLDY     5   0  79 N5        30.52F WCI  -4
HIBBING        PTCLDY    -4 -10  75 W5        30.48S WCI -15
ALEXANDRIA     CLEAR      7   2  80 N3        30.50F
SAINT CLOUD    PTCLDY     9   4  80 NW7       30.54F WCI  -2
MINNEAPOLIS    PTCLDY    14   6  70 NW9       30.55F WCI   2
$$

  *****  WEATHER ACROSS SOUTH DAKOTA  *****

CITY           SKY/WX    TMP DP  RH WIND       PRES   REMARKS
SIOUX FALLS    CLOUDY    20  15  81 SE3       30.50F
BROOKINGS      NOT AVBL
WATERTOWN      CLOUDY    18  13  80 S5        30.46F WCI  11
HURON          CLEAR     19  15  84 S7        30.50F WCI  10
SISSETON         N/A     13  10  88 SE8       30.51F WCI   2
ABERDEEN       CLEAR     16  12  84 S3        30.48F
MITCHELL       CLEAR     19  16  88 S6        30.52F WCI  11
PIERRE         CLEAR     21  18  88 SE13      30.39F WCI   9
MOBRIDGE       CLEAR     20  17  88 S13       30.36F WCI   7
RAPID CITY     PTCLDY    22  13  68 SE5       30.26F WCI  16
$$

  *****  SOME WEATHER IN NEARBY STATES *****

CITY           SKY/WX    TMP DP  RH WIND       PRES   REMARKS
GLASGOW MT     CLEAR     26  21  81 E8        30.16F WCI  18
GREAT FALLS MT CLEAR     33  18  53 SW12      30.20F WCI  24
CHEYENNE WY    CLOUDY    27  19  72 SW5       30.27F WCI  22
SCOTTSBLUFF NE MOCLDY    28  21  75 E9        30.32F WCI  19
OMAHA NE       CLEAR     23  19  85 N5        30.55S WCI  17
DES MOINES IA  PTCLDY    22  15  75 N13       30.54R WCI  10
DAVENPORT IA   PTCLDY    21  14  74 NW12      30.47R WCI   9
CHICAGO IL     CLOUDY    26  12  55 N12       30.37R WCI  16
EAU CLAIRE WI  PTCLDY     9   0  67 NW7       30.52R WCI  -2
LA CROSSE WI   CLEAR     16   7  67 NW9       30.52R WCI   4
$$

  *****  SOME NATIONAL WEATHER *****

CITY           SKY/WX    TMP DP  RH WIND       PRES   REMARKS
LA GUARDIA NY  LGT SNOW  33  29  85 S5        29.90F FOG
RALEIGH NC     MOCLDY    38  26  62 SW5       29.97F
ATLANTA GA     CLOUDY    47  36  65 N22G30    30.15R
NEW ORLEANS LA MOCLDY    60  52  74 N15       30.26R
OKLAHOMA CITY  MOCLDY    39  26  59 NE8       30.50F
ALBUQUERQUE NM LGT SNOW  35  29  78 E15       30.38F
SALT LAKE CITY CLOUDY    38  35  89 CALM      30.22F
LOS ANGELES CA CLOUDY    62  50  64 E3        30.02S
BOISE ID       CLEAR     33  30  88 SE3       30.31F
SEATTLE WA     CLEAR     41  36  82 N5        30.30S
$$

*** WEATHER ACROSS MANITOBA...SASKATCHEWAN AND ONTARIO ***
                ***ONTARIO***

CITY           SKY/WX    TMP DP  RH WIND       PRES   REMARKS
GERALDTON      CLEAR    -11 -17  77 W3        30.35R
THUNDER BAY    CLEAR     -2  -8  78 W8        30.50R WCI -17
SIOUX LOOKOUT  CRYSTALS -13 -17  84 CALM      30.42S
TORONTO        CLOUDY    27  21  80 NW20      29.92R WCI  13
BIG TROUT LK   CLEAR    -15 -20  76 W9        30.28F WCI -33
PICKLE LAKE    NOT AVBL
DRYDEN         CLEAR    -11 -15  84 W7        30.43S WCI -26
KENORA         CLEAR     -9 -15  77 W2        30.45F
$$
                *** MANITOBA***

CITY           SKY/WX    TMP DP  RH WIND       PRES   REMARKS
BRANDON        LGT SNOW   9   7  92 SE5       30.36F WCI   0
DAUPHIN        LGT SNOW   7   3  85 SE6       30.33F WCI  -3
ISLAND LAKE    CLEAR    -18 -24  76 SW3       30.37F
PILOT MOUND      N/A      9   5  85 S9          N/A  WCI  -5
THE PAS        FLURRIES   0  -6  78 SE6       30.27F WCI -12
THOMPSON       MOCLDY   -15 -20  76 W6        30.29F WCI -29
WINNIPEG       CLOUDY     3  -6  66 S7        30.50F WCI  -9
LYNN LAKE      CLOUDY   -13 -18  77 W3        30.20S
CHURCHILL      PTCLDY   -13 -20  70 W12       30.13F WCI -33
GILLAM         CLEAR    -13 -20  70 W12       30.24F WCI -33
$$
                ***SASKATCHEWAN***

CITY           SKY/WX    TMP DP  RH WIND       PRES   REMARKS
ESTEVAN        PTCLDY    14  12  92 E10       30.19F WCI   1
KINDERSLEY     PTCLDY    10   9  92 SW5       30.16S WCI   2
LLOYDMINSTER   NOT AVBL
PRINCE ALBERT  CLOUDY    10   7  85 SW3       30.18F
REGINA         CLEAR     14  12  92 SE12      30.17F WCI   0
YORKTON        CLOUDY    10   7  85 S10       30.21F WCI  -3


USA.gov is the U.S. government's official web portal to all federal, state and local government web resources and services.